Volver al catálogo

GLOBALSTAR M031

ActivoComunicacionesLEO
NORAD 25946·PAYLOAD·🇺🇸 United States

Lanzado Oct 18, 1999 desde Baikonur Cosmodrome

Loading…

Próximos Pases (próximas 24 horas)

TLE

ActualizadoSource: Space-Track

Época: Sep 14, 2026, 11:29 UTC

1 25946U 99058D   26257.47899667 -.00000032  00000-0  58903-3 0  9999
2 25946  51.9951 273.5705 0001467  30.2771 115.6536 12.16055967219815

Sigue GLOBALSTAR M031 en tiempo real con AllMySat

Download on the App Store